Regional Weather Roundup
Issued by NWS New Orleans/Baton Rouge, LA

Home | Current Version | Previous Version | Text Only | Print | Product List | Glossary On
Versions: 1 2 3 4 5 6 7 8 9 10 11 12 13 14 15 16 17 18 19 20 21 22 23 24 25 26 27 28 29 30 31 32 33 34 35 36 37 38 39 40 41 42 43 44 45 46 47 48 49 50
000
ASUS44 KLIX 181712
RWRLIX
NEW ORLEANS REGIONAL WEATHER ROUNDUP
NATIONAL WEATHER SERVICE NEW ORLEANS LA
1200 PM CDT SAT APR 18 2015

NOTE: "FAIR" INDICATES FEW OR NO CLOUDS BELOW 12,000 FEET WITH NO
      SIGNIFICANT WEATHER AND/OR OBSTRUCTIONS TO VISIBILITY.
      SKY/WX - SKY CONDITION AND SIGNIFICANT WEATHER.
      TMP - AIR TEMPERATURE.     DP    - DEWPOINT TEMPERATURE.
      RH  - RELATIVE HUMIDITY.   PRES  - PRESSURE.
      HI  - HEAT INDEX.          WCI   - WIND CHILL INDEX.

*  THESE STATIONS ARE NOT NWS OR FAA STATIONS AND ARE NOT UNDER
   NWS QUALITY CONTROL.

LAZ038-040-048-061>063-065>067-069-181800-
SOUTHEAST LOUISIANA

CITY           SKY/WX    TMP DP  RH WIND       PRES   REMARKS
N.O. AUDUBON     N/A     73  72  97 MISG        N/A
N.O. INTL ARPT CLOUDY    74  66  76 E7        29.90F
N.O. LAKEFRONT CLOUDY    76  69  79 SE14      29.90F
SLIDELL        CLOUDY    74  70  87 SE7       29.91F
BATON ROUGE    CLOUDY    73  67  81 SE12      29.88F
BOOTHVILLE     RAIN      70  70 100 SE7       29.97S FOG
BELLE CHASSE   CLOUDY    72  69  90 SE12      29.91F
BOGALUSA*        N/A     74  68  83 S7        29.92F
GALLIANO*      CLOUDY    69  67  94 CALM      29.91F
NEW ROADS*     CLOUDY    74  67  78 SE8       29.90S
GONZALES*      PTSUNNY   76  71  83 SE7       29.89S
HAMMOND*       CLOUDY    77  66  69 SE7       29.91F
HOUMA*         PTSUNNY   72  68  88 E10       29.91S
PORT FOURCHON* MOSUNNY   72  70  94 E14G20    29.95F

$$

MSZ070-080>082-181800-
SOUTHERN MISSISSIPPI

CITY           SKY/WX    TMP DP  RH WIND       PRES   REMARKS
MCCOMB         PTSUNNY   73  68  84 S7        29.93R
GULFPORT       LGT RAIN  73  70  90 SE13      29.92F
BILOXI         CLOUDY    73  73 100 SE8       29.93F
PASCAGOULA     CLOUDY    72  71  97 S5        29.95F
STENNIS ARPT*  PTSUNNY   72  68  88 MISG      29.92F

$$

COASTAL OBSERVATIONS
LAKE AND NEARSHORE STATIONS

STATION/POSITION TIME  TEMP    WIND        PRES    WAVE
                       AIR SEA DIR/SP/G            HT/PER
                 (UTC) (F)     (DEG/KT/KT) (MB)    (FT/S)
PASCAGOULA       1600   72      CALM  /  2 1015.0
WAVELAND YACHT   1600   71 73  120/ 12/ 13 1014.0
GRAND ISLE       1600   71 75   80/ 11/ 13 1013.9
SOUTHWEST PASS   1600   69 63   40/  6/  7 1015.5
NEW CANAL        1600   72     130/  3/  7 1013.7
SHELL BEACH      1600   72 75   80/ 11/ 12 1013.3

OFFSHORE STATIONS

STATION/POSITION TIME  TEMP    WIND        PRES    WAVE
                       AIR SEA DIR/SP/G            HT/PER
                 (UTC) (F)     (DEG/KT/KT) (MB)    (FT/S)
64 S DAUPHIN ISL 1650   72 75   90/ 10/ 12 1015.5    2/ 6

$$



USA.gov is the U.S. government's official web portal to all federal, state and local government web resources and services.